Content
SEND FEEDBACK

Daily
Averages
Monthly
Summary
United States of America

PAW PAW, ILLINOIS


Home > North America > United States > Illinois
Elevation: 281 meters     Latitude: 41 42N     Longitude: 088 58W

WEATHER
 
SELECT A DAY
Number of Records: 306,847;   Date Range: 11/6/01 - 7/20/14
 
SHARE

PRINT THIS DATA

[ ← Previous Day ]
WEATHER ALMANAC - 31 JANUARY, 2013
[ Next Day → ]
[ °F ]   °C
Weather ElementAverageHighLow
Temperature-11.8 °C-8 °C (12:35 am)-16.7 °C (11:55 pm)
Dewpoint-15 °C-10.8 °C (2:15 am)-20.1 °C (11:55 pm)
Humidity77.6 %83 % (2:35 am)72 % (9:15 pm)
Barometer1013.2 hPa1022.7 hPa (11:55 pm)1005.4 hPa (12:35 am)
Wind Speed33.5 km/h42.6 km/h (6:15 pm)
Wind Gust53.8 km/h (3:15 am)
Weather ElementAverage
Visibility14.3 km
Wind DirectionWNW (282 °)

Weather ElementTotal
Precipitation---
Heating Degree Days30.7 (Base 18.3)
Averaged from 70 records on 31 January, 2013
WEATHER CONDITIONS BREAKOUT
WIND DIRECTION BREAKOUT
WEATHER BY HOUR - 31 JANUARY, 2013
[ °F ]   °C
Local TimeTemperatureDewpointHumidityBarometerVisibilityWind DirectionWind SpeedGust SpeedPrecipitationEventsConditions
12:35 AM-8 °C-11.7 °C75 %1005.4 hPa16.1 kmWNW (300°)40.7 km/h51.8 km/hOvercast
12:55 AM-8.1 °C-11.7 °C76 %1005.4 hPa16.1 kmWNW (290°)29.6 km/h44.4 km/hOvercast
1:15 AM-8 °C-11.4 °C77 %1005.8 hPa16.1 kmWest (280°)37 km/h48.1 km/hOvercast
1:35 AM-8 °C-11.6 °C76 %1006.1 hPa16.1 kmWest (280°)31.5 km/h50.1 km/hOvercast
1:55 AM-8.1 °C-11.3 °C78 %1006.4 hPa11.3 kmWest (280°)33.3 km/h48.1 km/hSnowLight Snow
2:15 AM-8.2 °C-10.8 °C82 %1006.4 hPa8 kmWest (280°)38.9 km/h44.4 km/hSnowLight Snow
2:35 AM-8.5 °C-10.9 °C83 %1006.8 hPa11.3 kmWest (280°)31.5 km/h50.1 km/hSnowLight Snow
2:55 AM-8.5 °C-11.4 °C80 %1006.8 hPa16.1 kmWest (280°)38.9 km/h48.1 km/hOvercast
3:15 AM-8.5 °C-11.6 °C79 %1006.8 hPa16.1 kmWest (280°)37 km/h53.8 km/hOvercast
3:35 AM-8.5 °C-11.3 °C81 %1007.1 hPa16.1 kmWest (270°)33.3 km/h44.4 km/hOvercast
3:55 AM-8.5 °C-11.3 °C81 %1007.1 hPa16.1 kmWest (270°)33.3 km/h44.4 km/hOvercast
4:15 AM-8.5 °C-11 °C82 %1007.1 hPa11.3 kmWest (270°)29.6 km/h40.7 km/hSnowLight Snow
4:35 AM-8.6 °C-11 °C83 %1007.5 hPa11.3 kmWest (280°)33.3 km/h42.6 km/hSnowLight Snow
4:55 AM-8.8 °C-11.5 °C81 %1007.5 hPa16.1 kmWest (280°)35.2 km/h42.6 km/hSnowLight Snow
5:15 AM-9 °C-11.9 °C80 %1007.8 hPa16.1 kmWest (270°)33.3 km/h42.6 km/hSnowLight Snow
5:35 AM-9.2 °C-12.2 °C79 %1007.8 hPa16.1 kmWest (280°)37 km/h44.4 km/hOvercast
6:15 AM-9.6 °C-12.6 °C79 %1008.5 hPa16.1 kmWNW (290°)27.8 km/hSnowLight Snow
6:35 AM-10 °C-13 °C79 %1008.8 hPa16.1 kmWest (270°)37 km/h48.1 km/hOvercast
6:55 AM-10.5 °C-13.3 °C80 %1008.8 hPa16.1 kmWest (280°)29.6 km/h37 km/hOvercast
7:15 AM-10.6 °C-13.4 °C80 %1009.5 hPa16.1 kmWest (280°)37 km/h48.1 km/hOvercast
7:35 AM-11.1 °C-14.1 °C79 %1009.5 hPa16.1 kmWest (280°)25.9 km/h38.9 km/hOvercast
7:55 AM-11.3 °C-14 °C81 %1010.2 hPa16.1 kmWest (270°)25.9 km/hMostly Cloudy
8:15 AM-11.7 °C-14.4 °C81 %1010.2 hPa16.1 kmWest (270°)29.6 km/hMostly Cloudy
8:35 AM-11.7 °C-14.3 °C81 %1010.5 hPa16.1 kmWest (280°)29.6 km/hMostly Cloudy
8:55 AM-11.7 °C-14.4 °C81 %1010.8 hPa11.3 kmWest (280°)33.3 km/h38.9 km/hOvercast
9:15 AM-11.5 °C-14.4 °C80 %1010.8 hPa11.3 kmWest (280°)31.5 km/hOvercast
9:35 AM-11.5 °C-14.3 °C80 %1011.2 hPa11.3 kmWest (280°)31.5 km/hOvercast
9:55 AM-11.5 °C-14.2 °C81 %1011.5 hPa8 kmWest (280°)29.6 km/h37 km/hHaze
10:15 AM-11.3 °C-14.2 °C80 %1011.9 hPa8 kmWest (270°)25.9 km/hHaze
10:35 AM-11 °C-13.7 °C81 %1011.9 hPa11.3 kmWest (280°)27.8 km/hMostly Cloudy
10:55 AM-11 °C-14.2 °C78 %1012.2 hPa11.3 kmWest (270°)29.6 km/hMostly Cloudy
11:15 AM-10.8 °C-13.8 °C79 %1012.2 hPa11.3 kmWest (280°)33.3 km/h42.6 km/hOvercast
11:35 AM-11.1 °C-14.3 °C78 %1012.5 hPa16.1 kmWest (280°)29.6 km/h38.9 km/hMostly Cloudy
11:55 AM-10.5 °C-13.3 °C80 %1012.5 hPa11.3 kmWest (270°)29.6 km/h37 km/hMostly Cloudy
12:15 PM-10.6 °C-13.7 °C78 %1012.5 hPa11.3 kmWest (270°)33.3 km/h40.7 km/hOvercast
12:35 PM-10.6 °C-14.3 °C75 %1012.9 hPa16.1 kmWNW (290°)33.3 km/h42.6 km/hOvercast
12:55 PM-10.6 °C-14.2 °C75 %1013.2 hPa16.1 kmWest (270°)31.5 km/h40.7 km/hMostly Cloudy
1:15 PM-10.7 °C-14 °C77 %1013.2 hPa11.3 kmWest (270°)35.2 km/h42.6 km/hMostly Cloudy
1:35 PM-11.1 °C-14.5 °C76 %1013.2 hPa11.3 kmWNW (290°)33.3 km/h42.6 km/hOvercast
1:55 PM-11.1 °C-14.8 °C75 %1013.2 hPa16.1 kmWNW (290°)27.8 km/h40.7 km/hOvercast
2:15 PM-10.9 °C-14.5 °C75 %1013.2 hPa16.1 kmWest (280°)33.3 km/h42.6 km/hMostly Cloudy
2:35 PM-11.3 °C-15.1 °C74 %1013.5 hPa16.1 kmWest (280°)33.3 km/h46.3 km/hMostly Cloudy
2:55 PM-11.5 °C-14.9 °C76 %1013.9 hPa16.1 kmWest (270°)35.2 km/h44.4 km/hOvercast
3:15 PM-11.6 °C-15.2 °C75 %1014.2 hPa16.1 kmWest (280°)33.3 km/h44.4 km/hOvercast
3:35 PM-11.9 °C-15.4 °C76 %1014.6 hPa16.1 kmWest (280°)38.9 km/h46.3 km/hOvercast
3:55 PM-12.2 °C-16.1 °C73 %1014.9 hPa16.1 kmWest (280°)38.9 km/hOvercast
4:15 PM-12.7 °C-15.9 °C77 %1015.2 hPa11.3 kmWest (270°)38.9 km/h48.1 km/hMostly Cloudy
4:35 PM-13 °C-16.5 °C76 %1015.6 hPa16.1 kmWest (280°)40.7 km/h48.1 km/hMostly Cloudy
4:55 PM-13 °C-16.6 °C75 %1015.9 hPa16.1 kmWest (280°)40.7 km/h50.1 km/hMostly Cloudy
5:15 PM-13.5 °C-17.1 °C75 %1016.3 hPa16.1 kmWest (280°)38.9 km/h46.3 km/hScattered Clouds
5:35 PM-13.8 °C-17 °C77 %1016.6 hPa16.1 kmWest (280°)38.9 km/h50.1 km/hMostly Cloudy
5:55 PM-13.8 °C-16.5 °C80 %1017.3 hPa8 kmWest (280°)35.2 km/h46.3 km/hHaze
6:15 PM-14.1 °C-17.3 °C77 %1017.6 hPa11.3 kmWNW (290°)42.6 km/hOvercast
6:35 PM-14.2 °C-17.8 °C75 %1017.9 hPa16.1 kmWNW (290°)35.2 km/h46.3 km/hMostly Cloudy
6:55 PM-14.5 °C-17.9 °C76 %1018.3 hPa16.1 kmWNW (290°)35.2 km/h44.4 km/hMostly Cloudy
7:15 PM-14.7 °C-17.5 °C80 %1018.6 hPa8 kmWNW (290°)38.9 km/h46.3 km/hHaze
7:35 PM-14.8 °C-18 °C77 %1019 hPa16.1 kmWNW (290°)37 km/h46.3 km/hOvercast
7:55 PM-15 °C-18.5 °C75 %1019.3 hPa16.1 kmWNW (290°)35.2 km/h42.6 km/hOvercast
8:15 PM-15.1 °C-18.5 °C76 %1019.6 hPa16.1 kmWNW (290°)35.2 km/h46.3 km/hOvercast
8:35 PM-15.3 °C-18.4 °C78 %1020 hPa11.3 kmWNW (300°)33.3 km/hMostly Cloudy
8:55 PM-15.5 °C-19.4 °C73 %1020.3 hPa16.1 kmWNW (300°)29.6 km/h46.3 km/hScattered Clouds
9:15 PM-15.6 °C-19.6 °C72 %1020.7 hPa16.1 kmWNW (300°)33.3 km/h40.7 km/hClear
9:35 PM-16 °C-19.8 °C73 %1020.7 hPa16.1 kmWNW (290°)33.3 km/hClear
9:55 PM-16 °C-19.8 °C73 %1021.3 hPa16.1 kmWNW (300°)25.9 km/h42.6 km/hClear
10:15 PM-16.1 °C-19.9 °C73 %1021.3 hPa16.1 kmWNW (290°)31.5 km/hClear
10:35 PM-16.3 °C-19.9 °C74 %1021.3 hPa16.1 kmWNW (290°)33.3 km/h40.7 km/hClear
10:55 PM-16.4 °C-20 °C74 %1021.7 hPa16.1 kmWNW (290°)33.3 km/hClear
11:15 PM-16.5 °C-19.9 °C76 %1022 hPa16.1 kmWNW (290°)29.6 km/h38.9 km/hClear
11:35 PM-16.6 °C-20 °C76 %1022.4 hPa16.1 kmWNW (290°)29.6 km/h38.9 km/hClear
11:55 PM-16.7 °C-20.1 °C76 %1022.7 hPa16.1 kmWNW (290°)27.8 km/h38.9 km/hClear
Hourly data recorded from KRPJ, located 0 kilometers away from Paw Paw, Illinois







STORIES FROM OUR PARTNERS